Temp
12 11 11 11 11 11 11 11 11 11 12 12 12 13 12 12 12 12 12 12 12 12 11 11 11 11 11 11 11 10 10 10 9 9 9 9 9 10 10 10 9 9 9 9 9 9 9 8 8 8 7 7 7 6 6 5 5 5 4 4 4 4 4 3 3 3 3 3 3
12 12 12 12 12 12 12 11 11 11 11 12 12 12 12 12 12 12 12 12 12 11 11 11 11 11 11 11 11 10 10 9 9 9 8 9 9 10 10 9 9 9 9 9 9 9 8 8 8 7 7 6 6 5 5 5 4 4 4 4 3 3 3 3 3 3 3 3 3
12 12 12 12 12 12 11 11 10 11 11 12 12 12 12 12 12 12 12 12 12 11 11 11 11 11 11 10 10 10 9 9 8 8 8 9 9 10 9 9 9 9 9 9 9 8 8 8 7 7 6 6 5 5 4 4 3 3 3 3 3 2 2 2 2 2 2 2 2
11 11 11 11 12 11 11 10 11 11 12 12 12 12 12 12 12 12 12 11 11 11 11 11 10 10 10 9 9 8 8 8 8 8 8 9 9 9 9 9 8 8 8 8 8 8 8 7 7 6 6 5 5 4 4 3 3 3 2 2 2 2 2 2 2 2 2 2 2
11 11 11 11 11 11 11 11 11 12 12 12 12 12 12 12 12 12 11 11 11 11 10 10 9 9 8 8 8 8 8 8 8 8 8 9 9 9 8 8 8 8 8 8 8 7 7 7 6 6 5 5 4 4 3 3 3 3 3 2 2 2 2 1 1 1 1 1 1
11 11 11 11 11 10 10 11 12 12 12 12 12 12 12 12 11 11 11 11 10 10 9 9 8 8 8 8 8 8 8 8 8 8 9 9 9 9 8 8 8 8 8 7 7 7 7 6 6 5 5 4 4 3 3 3 3 3 3 2 2 2 1 1 1 1 0 0 0
11 11 11 11 10 10 10 11 12 12 12 11 12 12 11 11 11 10 10 9 9 9 8 8 8 8 8 8 8 8 8 8 8 9 9 9 8 8 8 8 8 8 8 7 7 7 6 6 6 5 4 4 4 3 3 2 2 2 2 2 2 2 1 1 0 0 0 0 -0
10 10 10 10 10 10 11 11 11 11 11 11 11 11 11 10 10 9 9 9 8 8 8 8 8 8 8 8 8 8 8 8 8 9 8 8 8 8 8 8 8 8 7 7 7 6 6 6 5 5 4 4 3 3 2 2 2 2 1 1 1 1 1 1 0 0 -0 -0 -1
10 10 10 10 10 10 10 11 11 11 11 11 10 10 10 9 9 9 8 8 8 8 8 8 8 8 8 7 7 7 8 8 8 8 8 8 8 8 8 8 8 7 7 7 6 6 6 5 5 4 4 3 3 2 2 1 1 1 1 0 0 0 0 0 -0 -0 -1 -1 -1
10 10 10 10 10 10 10 10 10 10 10 10 9 9 9 9 8 9 9 8 8 8 8 8 7 7 7 7 7 8 8 8 8 8 8 8 8 8 8 7 7 7 7 7 6 6 6 5 5 4 3 3 2 2 1 1 1 0 -0 -0 -0 -0 -0 -0 -0 -1 -1 -1 -2
10 10 10 10 10 10 9 9 10 10 10 9 9 8 8 9 9 9 8 8 8 7 7 7 7 7 7 7 8 8 8 8 8 8 8 8 8 7 8 8 8 7 7 7 7 6 5 5 4 4 3 3 2 2 1 1 1 0 -0 -0 -1 -1 -1 -1 -1 -1 -2 -2 -2
10 10 9 9 9 9 9 9 9 9 9 8 8 8 8 8 8 8 7 7 7 7 7 7 7 7 7 7 8 8 8 8 8 8 8 8 8 8 8 8 8 7 7 7 6 6 5 5 4 3 3 2 2 2 1 1 0 0 -0 -0 -1 -1 -1 -1 -2 -2 -2 -2 -3
9 9 9 9 9 9 9 9 8 8 8 8 8 8 8 7 7 7 7 7 7 7 7 7 7 7 7 8 8 8 8 8 8 8 8 8 8 8 7 7 7 7 7 6 6 5 5 4 4 3 3 2 2 1 1 0 0 -0 -0 -0 -1 -1 -1 -1 -2 -2 -2 -3 -3
9 8 8 8 8 9 9 9 8 8 8 8 8 8 7 7 7 7 7 7 7 7 7 7 7 7 8 8 8 8 8 8 8 8 7 7 7 7 7 7 7 7 6 6 5 5 4 4 3 2 2 1 1 1 0 -0 -0 -1 -1 -1 -1 -1 -2 -2 -2 -2 -3 -3 -3
8 8 8 8 8 8 9 8 8 8 8 7 7 7 7 7 7 7 7 7 7 7 7 7 7 8 8 8 8 8 7 7 7 7 7 7 7 7 7 7 7 6 6 5 5 4 4 3 3 2 2 1 1 0 -0 -1 -1 -2 -2 -2 -2 -2 -3 -3 -3 -3 -3 -4 -4
7 7 7 8 8 8 8 8 8 7 7 7 7 7 7 7 7 7 7 7 7 7 7 7 7 8 8 8 8 7 7 7 7 7 7 7 7 7 7 6 6 6 5 5 4 4 3 3 2 2 1 0 -0 -1 -1 -2 -3 -3 -3 -4 -3 -3 -3 -4 -4 -4 -3 -4 -4
7 7 7 8 8 8 7 7 7 7 7 7 7 7 7 7 7 7 7 7 7 7 7 7 7 7 7 7 7 7 7 7 7 7 7 7 7 7 6 6 6 6 5 5 4 4 3 2 2 1 -0 -1 -2 -3 -3 -4 -4 -4 -4 -4 -4 -4 -4 -3 -3 -3 -3 -3 -3
7 7 7 7 7 7 7 7 7 7 7 7 7 7 7 7 7 7 7 6 7 7 7 7 7 7 7 7 7 7 7 7 7 7 7 7 7 7 6 6 6 6 5 5 4 3 3 2 1 -0 -1 -2 -3 -4 -4 -4 -4 -4 -4 -4 -4 -4 -4 -4 -3 -3 -3 -3 -3
7 7 7 7 7 7 7 7 7 7 7 7 7 7 7 7 7 6 6 7 7 7 7 7 7 7 7 7 7 7 6 6 6 7 7 7 7 7 6 6 6 5 5 4 3 3 2 0 -1 -2 -3 -4 -4 -5 -5 -5 -5 -5 -4 -4 -4 -4 -4 -4 -4 -4 -3 -4 -4
7 7 7 7 7 7 7 7 7 7 7 7 7 7 7 6 6 6 7 7 7 7 7 7 7 7 7 6 6 6 7 7 7 7 7 7 7 6 6 6 5 5 4 3 2 1 -0 -2 -3 -4 -5 -5 -5 -5 -5 -5 -5 -5 -5 -4 -4 -4 -4 -4 -4 -4 -4 -4 -4
7 7 7 7 7 7 7 7 7 7 7 7 7 6 6 6 6 7 7 7 7 7 7 7 6 6 6 6 6 6 7 7 7 7 6 6 6 6 6 5 4 4 3 2 0 -1 -2 -3 -4 -5 -5 -5 -5 -5 -5 -5 -5 -5 -5 -5 -5 -4 -4 -4 -4 -4 -3 -3 -3
6 7 7 7 7 7 7 7 7 7 7 7 6 6 6 7 7 7 7 7 7 6 6 6 6 6 6 6 6 6 6 6 6 6 6 6 6 5 5 4 3 2 1 -0 -1 -2 -3 -3 -4 -4 -4 -5 -5 -5 -5 -5 -5 -5 -5 -5 -5 -5 -4 -4 -4 -4 -4 -3 -3
6 6 6 6 6 6 6 6 6 7 6 6 6 6 7 7 7 7 7 6 6 6 6 6 6 6 6 6 6 6 6 6 6 6 6 6 5 5 4 3 1 0 -1 -2 -3 -3 -3 -3 -4 -4 -5 -5 -5 -5 -5 -5 -5 -6 -6 -5 -5 -5 -5 -4 -4 -4 -4 -4 -4
6 6 6 6 6 6 6 7 7 6 6 6 7 7 7 7 7 6 6 6 6 5 5 6 6 6 6 6 6 6 6 6 6 5 5 5 4 3 2 0 -1 -2 -3 -4 -4 -4 -4 -4 -4 -5 -5 -5 -5 -5 -5 -5 -5 -5 -5 -5 -5 -5 -5 -5 -5 -5 -4 -4 -4
6 6 6 6 6 7 7 7 6 6 7 7 7 7 7 6 6 6 6 5 5 5 5 6 6 6 6 6 6 6 6 5 5 4 4 3 2 1 -1 -2 -3 -4 -5 -5 -5 -4 -5 -5 -5 -5 -5 -5 -5 -5 -5 -5 -5 -5 -5 -5 -5 -5 -5 -5 -5 -5 -5 -4 -4
6 6 6 7 7 7 7 6 7 7 7 7 6 6 6 6 6 5 5 5 5 6 6 6 6 6 6 6 6 6 5 5 4 3 2 1 -0 -2 -3 -3 -4 -5 -5 -5 -5 -5 -5 -5 -5 -5 -5 -5 -5 -5 -5 -5 -5 -5 -5 -5 -5 -5 -5 -5 -5 -5 -5 -5 -4
6 6 7 7 7 6 6 6 7 7 7 6 6 6 6 5 5 5 6 6 6 6 6 6 6 6 6 6 5 5 4 3 2 1 0 -1 -2 -3 -3 -4 -5 -5 -5 -5 -5 -5 -5 -5 -5 -5 -5 -5 -5 -5 -5 -5 -5 -5 -6 -6 -6 -6 -6 -5 -5 -5 -5 -5 -5
6 7 7 6 6 6 6 7 7 6 6 6 5 5 5 5 5 6 6 6 6 6 6 6 6 5 5 4 4 3 2 1 0 -0 -1 -2 -3 -3 -4 -5 -5 -6 -5 -5 -5 -5 -5 -5 -5 -5 -5 -5 -5 -5 -5 -5 -5 -6 -6 -6 -6 -6 -6 -6 -6 -6 -6 -6 -6
7 6 6 6 6 6 6 6 6 6 5 5 5 5 5 6 6 6 6 7 7 6 6 5 4 4 3 2 2 1 0 -0 -1 -1 -2 -2 -3 -4 -4 -5 -6 -6 -6 -5 -5 -5 -5 -5 -5 -5 -5 -5 -5 -5 -5 -5 -6 -6 -6 -6 -7 -7 -7 -6 -6 -6 -6 -6 -6
6 6 6 6 6 6 6 5 5 5 5 5 5 6 6 6 6 6 7 7 6 5 4 3 3 2 1 1 0 -0 -1 -1 -1 -2 -2 -3 -3 -4 -5 -5 -6 -6 -6 -5 -5 -5 -4 -4 -4 -4 -4 -4 -5 -5 -5 -5 -6 -6 -6 -6 -6 -6 -6 -6 -6 -6 -6 -5 -5
6 6 6 6 6 5 5 5 5 5 5 6 6 6 6 6 7 7 6 5 4 3 3 2 1 -0 -1 -1 -1 -1 -1 -1 -1 -2 -2 -3 -4 -4 -5 -5 -5 -5 -5 -5 -5 -4 -4 -4 -4 -4 -4 -4 -5 -5 -5 -5 -6 -6 -6 -6 -6 -6 -6 -6 -6 -6 -5 -5 -5
5 6 6 5 5 5 5 5 5 5 6 6 6 6 6 6 6 5 4 3 2 1 1 0 -1 -1 -1 -1 -1 -1 -1 -1 -2 -2 -3 -3 -4 -4 -5 -5 -5 -5 -5 -5 -5 -4 -4 -4 -4 -4 -4 -4 -5 -5 -5 -5 -6 -6 -6 -6 -6 -6 -6 -6 -6 -6 -5 -5 -5
5 5 5 5 5 5 5 5 5 5 6 6 6 6 6 5 4 2 1 1 0 -0 -1 -1 -1 -1 -1 -1 -1 -1 -1 -1 -2 -2 -3 -3 -3 -4 -4 -5 -5 -5 -5 -5 -5 -5 -5 -5 -5 -4 -4 -4 -5 -5 -5 -6 -6 -6 -6 -6 -6 -6 -6 -6 -6 -6 -5 -5 -5
5 5 5 5 5 5 5 5 5 5 6 6 6 5 4 3 2 1 0 -0 -1 -1 -1 -1 -1 -1 -1 -1 -1 -1 -1 -2 -2 -2 -2 -3 -3 -3 -4 -5 -5 -5 -5 -5 -5 -5 -5 -5 -5 -5 -5 -5 -5 -5 -5 -6 -6 -6 -6 -6 -6 -6 -6 -6 -6 -6 -6 -5 -5
5 5 5 5 5 5 5 5 5 5 5 5 4 3 2 1 1 0 -1 -1 -1 -1 -1 -1 -1 -1 -1 -1 -1 -1 -1 -2 -2 -2 -2 -2 -3 -3 -4 -6 -6 -6 -6 -6 -5 -5 -6 -6 -5 -5 -5 -5 -5 -5 -5 -6 -6 -6 -6 -6 -6 -6 -6 -6 -6 -5 -5 -5 -5
5 5 5 5 5 5 5 5 5 5 4 3 2 1 1 0 -0 -1 -1 -1 -2 -1 -1 -1 -1 -1 -1 -1 -1 -1 -1 -1 -1 -1 -2 -2 -3 -4 -5 -6 -7 -7 -7 -6 -6 -6 -6 -6 -6 -6 -5 -5 -5 -5 -5 -6 -6 -6 -6 -6 -6 -6 -5 -5 -5 -5 -5 -5 -5
5 5 5 5 5 5 5 5 4 3 2 1 1 1 0 -0 -1 -2 -2 -2 -2 -2 -2 -1 -2 -1 -1 -1 -1 -1 -1 -1 -1 -1 -2 -2 -3 -4 -5 -6 -7 -7 -7 -7 -7 -7 -7 -7 -6 -6 -6 -5 -5 -5 -5 -6 -6 -6 -6 -6 -6 -5 -5 -5 -5 -5 -5 -5 -5
4 5 5 5 5 5 4 4 3 2 1 1 0 0 -0 -1 -2 -2 -2 -2 -2 -2 -1 -2 -2 -2 -1 -1 -1 -1 -1 -1 -1 -2 -2 -3 -4 -5 -6 -7 -7 -7 -8 -8 -8 -7 -7 -7 -7 -6 -6 -6 -5 -5 -5 -6 -6 -6 -6 -6 -5 -5 -5 -5 -5 -5 -5 -5 -5
4 5 5 5 4 4 3 2 1 1 0 0 0 -0 -1 -1 -2 -2 -2 -2 -2 -2 -2 -2 -2 -1 -1 -1 -1 -1 -1 -2 -2 -2 -3 -4 -5 -6 -6 -7 -8 -8 -8 -8 -8 -8 -7 -7 -7 -6 -6 -6 -6 -6 -6 -6 -6 -6 -6 -5 -5 -5 -5 -5 -5 -5 -5 -5 -5
4 5 5 4 4 3 2 1 1 0 0 -0 -0 -1 -1 -1 -2 -2 -2 -2 -2 -2 -2 -2 -2 -1 -1 -1 -1 -2 -2 -3 -3 -4 -5 -5 -6 -6 -7 -7 -8 -8 -8 -8 -8 -7 -7 -7 -7 -6 -6 -6 -6 -6 -6 -6 -6 -6 -5 -5 -5 -5 -5 -5 -5 -5 -5 -5 -5
4 4 4 4 3 2 2 1 0 -0 -0 -1 -1 -1 -1 -2 -2 -2 -2 -2 -2 -2 -2 -2 -2 -1 -1 -1 -2 -3 -4 -5 -5 -5 -6 -6 -7 -7 -7 -7 -8 -8 -8 -8 -7 -7 -7 -6 -6 -6 -6 -6 -6 -6 -6 -6 -6 -6 -6 -5 -6 -5 -5 -5 -5 -5 -6 -5 -5
Height
1400 1402 1404 1406 1407 1409 1411 1413 1416 1417 1420 1422 1425 1429 1432 1436 1439 1442 1444 1446 1448 1449 1450 1452 1453 1456 1458 1460 1462 1463 1465 1466 1467 1468 1469 1471 1472 1472 1472 1471 1471 1470 1470 1470 1470 1470 1470 1471 1471 1471 1470 1470 1470 1470 1470 1470 1470 1470 1470 1470 1470 1470 1470 1470 1470 1470 1470 1470 1470
1399 1402 1404 1405 1406 1408 1410 1413 1415 1417 1420 1422 1425 1428 1431 1434 1437 1440 1442 1444 1446 1447 1448 1450 1452 1455 1458 1460 1462 1463 1464 1465 1466 1467 1469 1470 1471 1471 1470 1470 1469 1469 1469 1469 1469 1469 1469 1469 1469 1469 1468 1468 1468 1468 1468 1468 1468 1468 1468 1468 1468 1468 1468 1467 1467 1467 1467 1468 1468
1398 1401 1403 1404 1406 1407 1409 1412 1415 1417 1419 1422 1424 1427 1430 1433 1436 1438 1440 1442 1444 1445 1447 1450 1452 1455 1457 1459 1461 1462 1463 1464 1465 1466 1467 1469 1469 1469 1468 1468 1467 1467 1467 1467 1467 1467 1467 1467 1467 1467 1467 1467 1466 1466 1466 1466 1466 1466 1466 1466 1466 1466 1465 1465 1465 1465 1465 1465 1465
1397 1400 1402 1404 1405 1407 1409 1411 1413 1415 1417 1420 1423 1426 1429 1432 1434 1436 1438 1440 1442 1444 1447 1449 1452 1454 1457 1458 1460 1461 1462 1462 1463 1465 1467 1467 1467 1467 1466 1466 1466 1466 1466 1466 1466 1466 1465 1465 1465 1465 1465 1465 1464 1464 1464 1464 1464 1464 1464 1464 1464 1464 1464 1463 1463 1462 1462 1462 1462
1396 1399 1401 1403 1405 1407 1408 1410 1412 1414 1417 1420 1423 1426 1428 1430 1432 1434 1437 1439 1441 1443 1446 1449 1451 1453 1455 1457 1458 1459 1460 1461 1462 1464 1465 1466 1465 1465 1465 1465 1465 1465 1464 1464 1464 1463 1463 1463 1463 1463 1463 1462 1462 1462 1462 1462 1462 1462 1462 1462 1462 1462 1462 1461 1461 1461 1460 1460 1460
1396 1398 1400 1402 1405 1407 1409 1410 1412 1415 1418 1420 1422 1424 1426 1428 1430 1433 1435 1438 1440 1442 1445 1447 1450 1452 1454 1455 1456 1457 1458 1460 1462 1464 1464 1464 1463 1463 1463 1463 1463 1463 1463 1462 1462 1462 1462 1461 1461 1461 1461 1461 1460 1460 1460 1460 1460 1460 1460 1460 1460 1460 1460 1459 1459 1458 1458 1458 1457
1394 1397 1400 1402 1405 1407 1409 1411 1413 1415 1418 1420 1421 1422 1424 1427 1429 1432 1434 1437 1439 1442 1444 1446 1448 1450 1452 1453 1455 1457 1459 1461 1462 1462 1462 1462 1462 1462 1462 1462 1462 1461 1461 1461 1460 1460 1460 1459 1459 1459 1459 1459 1458 1458 1458 1458 1457 1457 1457 1457 1457 1457 1457 1457 1457 1456 1456 1456 1455
1394 1397 1399 1402 1406 1409 1410 1411 1413 1415 1416 1417 1419 1421 1423 1425 1428 1431 1433 1436 1438 1440 1443 1445 1447 1449 1451 1453 1455 1457 1459 1460 1461 1460 1460 1460 1460 1460 1460 1460 1460 1459 1459 1459 1459 1458 1458 1457 1457 1457 1457 1457 1456 1456 1456 1455 1455 1455 1455 1454 1454 1454 1454 1454 1454 1454 1454 1453 1453
1394 1397 1401 1404 1407 1410 1411 1412 1412 1412 1413 1415 1417 1419 1422 1425 1427 1430 1432 1434 1437 1439 1442 1444 1446 1449 1452 1454 1456 1458 1459 1459 1459 1459 1458 1458 1458 1458 1458 1458 1458 1457 1457 1457 1457 1457 1456 1456 1456 1455 1455 1455 1454 1454 1453 1453 1452 1452 1452 1452 1452 1452 1452 1452 1452 1452 1451 1451 1451
1395 1399 1402 1406 1408 1410 1410 1410 1410 1411 1411 1413 1416 1419 1422 1424 1427 1429 1432 1434 1436 1439 1442 1444 1447 1450 1453 1455 1456 1457 1457 1457 1457 1457 1457 1457 1457 1457 1456 1456 1456 1456 1455 1455 1455 1455 1454 1454 1454 1453 1452 1452 1452 1452 1451 1451 1450 1450 1449 1449 1449 1449 1449 1449 1449 1449 1449 1449 1449
1397 1401 1404 1406 1408 1408 1408 1408 1408 1409 1411 1413 1416 1418 1421 1424 1427 1429 1431 1433 1436 1439 1442 1446 1449 1451 1453 1454 1455 1456 1456 1456 1456 1456 1455 1455 1455 1454 1454 1454 1453 1453 1453 1453 1453 1453 1452 1452 1451 1451 1450 1450 1450 1449 1449 1448 1448 1447 1447 1447 1447 1446 1446 1446 1447 1447 1447 1447 1447
1399 1402 1405 1406 1406 1406 1406 1406 1407 1409 1411 1413 1416 1418 1421 1424 1426 1428 1431 1433 1437 1440 1444 1447 1450 1451 1452 1453 1454 1454 1454 1454 1454 1454 1454 1453 1453 1452 1452 1452 1452 1451 1451 1451 1451 1451 1450 1450 1449 1448 1448 1447 1447 1447 1447 1446 1446 1445 1445 1444 1444 1444 1444 1444 1444 1445 1445 1445 1445
1401 1403 1405 1405 1405 1404 1404 1405 1406 1408 1411 1413 1415 1418 1421 1423 1425 1427 1431 1434 1438 1442 1445 1448 1449 1451 1452 1452 1452 1452 1452 1452 1452 1452 1452 1451 1451 1450 1450 1450 1449 1449 1449 1449 1449 1448 1448 1447 1447 1446 1445 1445 1445 1444 1444 1444 1443 1443 1442 1442 1442 1442 1442 1442 1442 1442 1443 1443 1443
1402 1404 1404 1404 1403 1402 1403 1404 1406 1408 1411 1413 1415 1418 1420 1422 1425 1428 1432 1436 1440 1443 1446 1447 1448 1450 1450 1451 1451 1451 1451 1451 1451 1451 1450 1450 1449 1448 1448 1448 1448 1447 1447 1447 1447 1446 1446 1445 1444 1444 1443 1443 1442 1442 1442 1442 1441 1441 1441 1440 1440 1440 1440 1440 1440 1441 1441 1441 1441
1403 1403 1403 1402 1401 1401 1402 1404 1406 1408 1411 1413 1416 1418 1421 1423 1426 1430 1434 1438 1442 1444 1445 1447 1447 1448 1449 1449 1449 1449 1449 1449 1449 1449 1448 1448 1447 1447 1446 1446 1446 1446 1446 1445 1445 1444 1443 1443 1442 1442 1441 1441 1441 1440 1440 1440 1439 1439 1439 1439 1439 1439 1439 1439 1439 1439 1440 1440 1440
1403 1402 1401 1400 1399 1400 1402 1404 1407 1409 1412 1414 1417 1419 1421 1423 1427 1432 1437 1440 1442 1443 1445 1446 1447 1447 1447 1448 1448 1448 1448 1448 1447 1447 1447 1446 1445 1445 1445 1444 1444 1444 1444 1443 1442 1442 1441 1441 1440 1440 1439 1439 1439 1438 1438 1438 1438 1438 1438 1438 1438 1438 1438 1438 1439 1439 1439 1439 1439
1401 1400 1399 1398 1398 1400 1402 1405 1407 1410 1413 1416 1418 1420 1422 1426 1431 1435 1438 1440 1441 1443 1444 1445 1445 1446 1446 1446 1447 1447 1447 1446 1446 1445 1445 1444 1444 1443 1443 1443 1442 1442 1442 1441 1441 1440 1439 1439 1438 1438 1437 1437 1437 1437 1437 1437 1438 1438 1438 1438 1438 1438 1438 1438 1438 1438 1439 1439 1439
1398 1397 1397 1397 1399 1401 1403 1407 1409 1412 1415 1417 1418 1420 1424 1429 1433 1436 1438 1440 1441 1442 1443 1444 1444 1444 1445 1445 1445 1445 1445 1444 1444 1444 1443 1443 1442 1442 1441 1441 1440 1440 1439 1439 1439 1438 1438 1437 1437 1436 1436 1436 1436 1436 1436 1436 1436 1437 1437 1437 1437 1437 1437 1437 1437 1437 1437 1437 1437
1396 1396 1397 1398 1400 1403 1406 1408 1411 1413 1415 1416 1418 1422 1427 1431 1433 1436 1437 1439 1440 1441 1442 1442 1443 1443 1443 1443 1443 1443 1443 1443 1442 1442 1441 1441 1440 1440 1439 1439 1438 1438 1438 1437 1437 1437 1436 1436 1435 1435 1435 1435 1434 1434 1434 1435 1435 1435 1435 1435 1435 1435 1435 1435 1435 1435 1436 1436 1436
1395 1396 1398 1400 1402 1405 1407 1410 1412 1413 1414 1416 1420 1424 1428 1431 1434 1436 1437 1438 1439 1440 1441 1441 1442 1442 1442 1442 1442 1442 1442 1441 1441 1440 1439 1439 1438 1438 1438 1437 1437 1437 1436 1436 1435 1435 1434 1434 1434 1434 1434 1434 1433 1433 1433 1433 1433 1433 1433 1433 1433 1433 1433 1433 1434 1434 1434 1435 1435
1396 1397 1399 1402 1404 1406 1408 1409 1411 1412 1414 1418 1422 1426 1429 1432 1433 1435 1436 1437 1438 1439 1440 1440 1440 1441 1441 1441 1440 1440 1440 1439 1439 1438 1438 1438 1437 1437 1437 1436 1436 1435 1435 1434 1433 1433 1433 1433 1433 1432 1432 1432 1432 1432 1431 1431 1431 1431 1430 1430 1430 1431 1431 1432 1432 1432 1432 1433 1433
1397 1399 1400 1402 1404 1406 1407 1409 1410 1413 1416 1420 1423 1427 1429 1431 1433 1434 1435 1436 1437 1438 1438 1439 1439 1439 1439 1439 1439 1438 1438 1438 1437 1437 1437 1437 1437 1436 1435 1435 1434 1434 1433 1432 1432 1432 1432 1432 1431 1431 1431 1431 1430 1430 1429 1429 1429 1429 1429 1428 1428 1428 1428 1429 1429 1429 1429 1430 1430
1398 1399 1401 1402 1403 1405 1407 1409 1411 1414 1418 1422 1424 1427 1429 1431 1432 1433 1434 1435 1436 1437 1437 1437 1438 1437 1437 1437 1437 1437 1437 1437 1437 1436 1436 1436 1435 1434 1433 1433 1432 1432 1432 1431 1431 1431 1431 1431 1431 1430 1430 1429 1429 1428 1428 1427 1427 1427 1427 1427 1427 1427 1427 1427 1427 1427 1427 1428 1428
1398 1399 1400 1401 1403 1405 1407 1410 1413 1417 1420 1422 1425 1427 1428 1430 1431 1432 1433 1434 1435 1436 1436 1436 1436 1436 1436 1437 1437 1437 1436 1436 1436 1435 1435 1434 1433 1432 1432 1431 1431 1431 1430 1430 1430 1430 1430 1430 1429 1429 1428 1428 1427 1427 1426 1426 1425 1425 1425 1424 1424 1425 1425 1425 1426 1426 1426 1426 1427
1398 1398 1399 1401 1403 1406 1409 1412 1415 1418 1420 1422 1424 1426 1427 1429 1430 1432 1432 1433 1434 1434 1434 1435 1435 1435 1436 1436 1436 1436 1435 1435 1434 1434 1433 1432 1432 1431 1431 1430 1430 1430 1430 1430 1429 1429 1429 1428 1428 1427 1427 1426 1426 1425 1424 1424 1424 1423 1423 1423 1423 1423 1423 1423 1424 1424 1425 1425 1426
1397 1398 1400 1403 1406 1409 1411 1414 1416 1418 1420 1422 1424 1425 1427 1428 1429 1430 1431 1432 1432 1433 1433 1434 1434 1435 1435 1435 1435 1434 1434 1434 1433 1432 1432 1431 1430 1430 1430 1430 1430 1430 1429 1429 1429 1428 1428 1428 1427 1426 1426 1425 1424 1424 1423 1423 1422 1422 1422 1422 1422 1422 1422 1422 1422 1423 1423 1424 1424
1397 1400 1403 1406 1408 1410 1412 1414 1417 1418 1420 1422 1423 1425 1426 1427 1428 1429 1430 1431 1431 1432 1432 1433 1433 1434 1434 1434 1433 1433 1432 1432 1432 1431 1431 1430 1430 1430 1429 1429 1429 1428 1428 1428 1428 1427 1427 1427 1426 1425 1425 1424 1423 1423 1422 1422 1422 1421 1421 1421 1421 1421 1421 1421 1421 1422 1422 1422 1423
1400 1403 1405 1407 1409 1411 1413 1415 1416 1418 1420 1421 1423 1424 1425 1427 1427 1428 1429 1430 1431 1431 1432 1432 1432 1433 1433 1432 1432 1432 1432 1431 1431 1430 1430 1430 1429 1429 1429 1429 1428 1428 1427 1427 1427 1427 1426 1426 1425 1424 1424 1423 1422 1422 1422 1421 1421 1420 1420 1420 1420 1420 1421 1421 1421 1421 1421 1421 1422
1403 1404 1406 1407 1409 1411 1413 1414 1416 1418 1419 1421 1422 1423 1425 1426 1427 1427 1428 1429 1430 1430 1431 1432 1432 1432 1432 1432 1432 1431 1431 1431 1430 1430 1429 1429 1429 1429 1429 1428 1428 1427 1427 1427 1426 1426 1425 1425 1424 1423 1423 1422 1422 1421 1421 1420 1420 1420 1420 1420 1420 1420 1420 1421 1421 1421 1421 1421 1420
1403 1404 1406 1407 1409 1411 1412 1414 1416 1417 1419 1420 1422 1423 1424 1425 1426 1427 1428 1428 1429 1430 1431 1431 1431 1431 1431 1431 1431 1431 1431 1430 1430 1430 1429 1429 1428 1428 1428 1428 1427 1427 1426 1426 1425 1425 1424 1424 1423 1422 1422 1422 1421 1421 1420 1420 1420 1419 1419 1419 1419 1420 1420 1420 1420 1420 1419 1419 1419
1403 1404 1406 1407 1409 1410 1412 1414 1415 1417 1418 1420 1421 1422 1424 1425 1426 1426 1427 1428 1429 1430 1430 1431 1431 1431 1431 1431 1431 1431 1431 1430 1430 1429 1429 1428 1428 1428 1428 1427 1427 1426 1425 1425 1425 1424 1424 1423 1422 1422 1421 1421 1420 1420 1420 1419 1419 1419 1419 1419 1419 1419 1419 1419 1419 1419 1418 1418 1418
1402 1404 1406 1407 1408 1410 1412 1414 1415 1417 1418 1420 1421 1422 1423 1424 1425 1426 1427 1428 1429 1429 1430 1430 1431 1431 1431 1431 1431 1431 1430 1430 1429 1429 1428 1428 1428 1428 1427 1427 1426 1425 1425 1424 1424 1423 1423 1422 1422 1421 1421 1420 1420 1420 1419 1419 1419 1419 1419 1419 1419 1418 1418 1418 1418 1418 1418 1418 1418
1402 1403 1405 1407 1408 1410 1412 1414 1415 1417 1418 1420 1421 1422 1422 1424 1425 1426 1427 1428 1429 1429 1430 1430 1431 1431 1431 1431 1430 1430 1430 1429 1429 1428 1428 1428 1427 1427 1427 1426 1425 1425 1424 1424 1423 1423 1422 1422 1421 1420 1420 1420 1419 1419 1419 1419 1419 1418 1418 1418 1418 1417 1417 1417 1417 1417 1417 1417 1417
1402 1403 1405 1407 1409 1410 1412 1414 1416 1417 1418 1419 1420 1421 1422 1424 1425 1426 1427 1428 1429 1430 1430 1430 1431 1431 1431 1430 1430 1429 1429 1429 1429 1428 1428 1427 1427 1427 1426 1426 1425 1424 1424 1423 1422 1422 1422 1421 1420 1420 1419 1419 1419 1419 1419 1418 1418 1418 1417 1417 1417 1417 1416 1416 1416 1416 1415 1415 1415
1402 1404 1406 1407 1409 1411 1412 1414 1415 1417 1417 1419 1420 1422 1422 1424 1425 1426 1427 1428 1429 1429 1430 1430 1430 1430 1430 1430 1429 1429 1429 1428 1428 1428 1428 1427 1427 1427 1426 1426 1425 1424 1423 1423 1422 1422 1421 1420 1420 1419 1419 1419 1419 1418 1418 1418 1417 1417 1416 1416 1416 1415 1415 1415 1414 1414 1414 1414 1414
1402 1404 1406 1408 1409 1411 1412 1414 1415 1416 1417 1418 1420 1422 1423 1424 1425 1426 1427 1428 1429 1429 1429 1430 1430 1430 1430 1429 1429 1429 1429 1428 1428 1428 1427 1427 1427 1426 1426 1426 1425 1424 1423 1422 1422 1421 1421 1420 1419 1419 1419 1418 1418 1418 1417 1417 1416 1416 1415 1415 1415 1414 1414 1414 1413 1413 1413 1413 1413
1403 1405 1407 1408 1409 1411 1412 1413 1414 1416 1417 1419 1421 1422 1423 1424 1425 1427 1427 1428 1429 1429 1429 1430 1430 1430 1429 1429 1429 1429 1429 1428 1428 1428 1427 1427 1427 1426 1426 1426 1425 1424 1423 1422 1422 1421 1421 1420 1419 1419 1418 1418 1417 1417 1416 1416 1415 1415 1414 1414 1413 1413 1413 1413 1412 1412 1412 1412 1412
1404 1406 1407 1408 1409 1411 1412 1413 1415 1416 1418 1419 1421 1422 1423 1424 1426 1427 1428 1428 1429 1429 1429 1430 1430 1429 1429 1429 1429 1428 1428 1428 1428 1427 1427 1427 1426 1426 1426 1425 1425 1424 1423 1422 1422 1421 1421 1420 1419 1418 1417 1417 1416 1416 1415 1414 1414 1413 1413 1413 1412 1412 1412 1412 1412 1412 1412 1412 1412
1404 1406 1407 1408 1409 1410 1412 1413 1415 1417 1418 1420 1421 1422 1423 1425 1426 1427 1428 1428 1429 1429 1429 1429 1429 1429 1429 1429 1428 1428 1428 1428 1428 1427 1427 1427 1426 1426 1426 1425 1425 1424 1423 1422 1422 1421 1420 1419 1418 1417 1416 1416 1415 1414 1414 1413 1413 1412 1412 1412 1412 1412 1412 1412 1411 1411 1411 1411 1411
1404 1406 1407 1408 1409 1411 1412 1414 1416 1417 1419 1420 1422 1423 1424 1425 1426 1427 1428 1428 1429 1429 1429 1429 1429 1429 1429 1429 1428 1428 1428 1428 1427 1427 1427 1427 1426 1426 1426 1425 1425 1424 1423 1422 1422 1421 1420 1419 1417 1417 1415 1414 1414 1413 1413 1412 1412 1412 1412 1412 1411 1411 1411 1411 1411 1411 1411 1411 1410
1405 1406 1407 1408 1410 1411 1413 1415 1416 1418 1419 1421 1422 1423 1424 1425 1426 1427 1428 1428 1428 1429 1429 1428 1429 1429 1429 1429 1428 1428 1428 1428 1428 1428 1427 1427 1427 1427 1426 1426 1425 1424 1423 1422 1421 1420 1419 1418 1417 1416 1414 1413 1413 1412 1412 1412 1412 1411 1411 1411 1411 1411 1410 1410 1410 1410 1410 1410 1409
Wind_Speed
45 45 47 48 49 49 48 47 46 46 46 45 44 41 39 36 33 29 26 24 21 18 14 10 7 5 5 6 6 6 6 7 9 10 12 14 17 18 18 17 16 16 16 17 18 19 19 20 21 21 21 21 21 21 20 20 19 19 19 19 20 20 20 20 20 19 19 18 18
46 46 47 48 49 48 48 46 45 45 45 44 43 41 38 35 32 29 26 22 18 15 12 9 8 7 7 7 6 5 6 7 9 11 13 15 17 18 18 17 16 17 17 18 19 20 20 21 21 21 21 21 21 21 20 19 18 18 18 19 20 20 21 22 22 22 21 21 20
47 47 48 48 49 48 47 46 46 45 45 43 42 40 37 34 30 27 23 20 16 14 11 10 8 7 6 4 4 5 6 7 9 12 14 16 18 18 17 17 17 18 18 19 20 21 21 21 22 22 21 21 21 20 19 18 18 17 17 17 18 18 18 19 20 21 22 22 21
47 48 48 49 49 48 47 47 47 47 45 43 41 38 35 31 27 24 21 18 16 14 12 10 8 6 4 3 3 5 7 9 11 14 16 18 18 18 17 17 18 19 20 20 21 21 22 22 22 22 21 21 20 20 19 18 17 17 17 17 16 16 16 16 17 18 19 20 21
47 48 49 49 49 47 47 47 47 46 44 42 38 35 31 27 24 22 20 18 16 14 12 9 7 4 2 3 5 7 9 11 14 17 19 19 19 18 18 18 19 19 20 21 21 22 22 22 22 22 21 21 21 20 19 19 19 19 19 19 18 17 16 16 17 17 18 19 20
48 49 49 49 48 46 45 46 46 44 41 38 34 30 27 25 23 21 20 18 16 13 10 7 4 1 2 4 6 8 10 13 17 20 21 20 19 18 19 19 19 20 20 21 21 22 22 22 22 22 22 22 21 21 21 21 21 22 22 22 21 20 19 18 18 18 18 19 19
49 49 49 48 46 44 44 45 44 41 37 33 30 28 26 24 23 21 19 17 14 11 7 4 1 1 3 5 7 10 14 17 21 22 21 20 19 19 20 20 20 20 21 21 22 22 23 23 23 23 23 23 23 22 22 22 22 23 23 23 23 22 21 21 20 20 20 20 20
50 49 48 46 44 43 44 42 40 37 34 31 29 27 26 24 22 20 17 14 11 7 4 2 0 2 5 7 11 14 18 21 22 22 20 19 19 20 20 20 20 21 21 22 22 23 23 24 24 24 24 24 23 23 22 22 22 22 23 22 22 22 22 22 22 22 22 21 21
49 48 45 43 43 42 41 38 36 34 32 30 28 26 24 22 19 17 14 11 8 5 3 2 4 6 9 12 14 17 20 22 22 20 19 19 19 20 20 20 20 21 22 22 23 23 23 23 23 23 23 23 22 21 21 21 21 22 22 22 22 21 21 21 22 22 22 22 21
48 45 43 41 41 40 37 35 34 33 32 30 27 25 22 20 17 14 12 9 6 4 4 6 8 10 13 15 18 20 22 21 20 19 19 19 19 19 20 20 21 21 22 22 23 23 23 23 22 22 22 22 21 21 21 22 22 22 22 22 22 22 21 21 21 21 20 20 19
46 43 42 41 39 36 34 33 32 31 30 28 25 23 20 17 15 12 10 8 6 6 7 9 11 13 15 18 20 22 21 20 19 18 18 19 19 20 20 20 21 21 22 22 22 22 22 22 22 22 22 22 22 22 22 22 23 22 22 22 22 22 22 22 21 21 20 19 19
44 42 40 38 35 33 32 32 31 29 28 26 23 21 18 15 12 10 8 7 6 7 9 11 13 16 18 20 21 21 20 19 18 18 18 19 19 19 20 20 21 21 22 22 22 22 22 22 22 22 23 23 22 22 22 22 22 22 23 23 23 22 22 21 21 21 21 20 20
42 39 37 34 32 32 31 31 29 27 25 23 22 19 16 13 10 9 7 6 7 9 11 14 16 18 20 21 20 19 18 18 18 18 18 18 19 19 19 20 20 21 21 21 22 22 22 22 22 23 23 23 22 22 21 21 21 21 22 22 22 21 20 20 19 19 19 20 21
39 36 33 32 31 31 30 29 27 25 23 21 19 17 14 12 9 7 5 6 8 11 14 16 18 20 20 20 18 18 17 17 17 17 18 17 18 18 18 19 20 20 20 21 21 22 22 22 22 22 22 21 21 20 20 19 19 20 20 19 18 18 17 16 15 15 16 17 18
35 32 31 30 30 30 29 27 25 23 21 19 17 15 12 10 7 4 5 8 11 13 15 17 19 20 19 18 17 16 16 17 17 16 16 17 17 17 18 18 19 20 20 20 21 21 21 20 21 21 21 20 20 19 18 18 18 18 18 18 17 15 14 13 13 13 14 16 17
32 30 29 29 29 28 26 24 22 21 19 16 14 12 9 6 3 5 8 11 13 15 17 19 19 18 17 16 15 15 16 16 16 15 15 16 16 17 17 18 19 19 20 20 20 20 20 20 21 20 20 19 18 17 16 15 15 16 16 16 16 15 14 13 12 13 14 16 17
29 28 28 28 28 26 24 22 21 19 16 13 10 7 4 2 5 8 10 13 15 17 18 18 17 16 15 15 15 15 15 14 14 14 15 15 16 16 17 18 19 19 20 20 20 20 20 20 20 19 18 16 15 14 13 12 12 13 14 15 15 14 14 13 13 14 15 16 17
27 27 27 27 26 25 23 21 18 15 12 10 7 4 2 4 7 10 12 14 16 17 17 16 15 14 14 14 14 14 13 13 13 13 14 15 15 16 17 18 19 20 21 21 21 20 19 18 18 17 15 13 12 12 12 12 12 13 14 14 15 15 16 16 16 16 16 17 18
26 26 26 26 24 22 20 17 14 12 9 7 5 4 5 7 10 12 14 16 16 16 15 14 14 13 13 13 13 12 12 12 12 13 14 15 16 17 18 19 20 21 21 21 20 19 18 16 15 15 14 13 12 12 13 13 13 13 13 14 15 16 17 17 17 17 17 17 18
26 25 25 23 21 19 16 13 11 10 8 7 6 6 8 10 12 15 16 15 14 14 13 13 13 12 12 11 11 11 11 11 12 13 14 15 17 18 19 19 20 21 20 20 18 16 14 12 11 11 12 13 13 14 15 14 14 14 14 14 14 14 14 15 15 15 15 16 16
24 24 22 20 18 16 14 12 11 10 9 8 8 9 11 13 15 15 14 13 12 12 12 12 11 10 10 9 9 9 10 11 12 13 14 16 17 18 18 19 19 19 18 17 15 12 10 8 9 11 13 14 16 17 17 17 17 17 16 15 14 13 13 13 13 13 13 13 14
23 22 20 18 16 14 13 12 11 11 10 9 9 11 13 14 14 13 12 12 11 11 11 10 9 8 7 7 7 8 10 11 12 13 14 15 16 17 18 17 16 15 14 13 12 10 9 10 11 12 14 16 17 18 18 19 19 19 19 18 17 16 16 16 15 15 15 15 15
21 20 18 16 14 13 12 12 11 10 9 10 12 14 14 13 12 11 11 11 10 10 9 8 6 5 4 5 6 8 9 11 12 13 15 15 16 16 17 16 14 12 12 11 11 11 11 11 12 13 14 16 17 17 18 19 19 20 20 21 21 21 20 20 19 19 19 19 19
19 18 16 14 13 12 11 11 10 9 10 12 14 14 13 11 11 11 10 10 9 8 7 5 3 3 3 5 6 7 9 10 12 13 15 15 15 15 14 13 12 11 11 11 12 12 12 13 14 15 15 16 17 17 17 17 18 18 19 20 21 22 23 23 23 23 23 23 23
18 16 14 12 11 10 10 10 10 12 13 14 13 12 11 11 11 10 10 9 8 6 4 2 1 2 3 5 6 8 9 11 12 13 14 14 14 13 12 11 9 8 8 10 12 12 13 14 15 15 16 16 17 17 17 17 16 16 16 17 18 20 21 23 24 25 26 26 26
16 13 11 10 10 11 12 12 14 15 14 13 12 12 11 11 10 10 9 8 7 5 3 1 1 2 4 5 7 9 11 12 13 13 13 12 11 11 10 9 7 6 7 10 11 12 13 14 14 15 16 16 17 17 17 16 16 15 15 15 15 16 17 18 20 21 22 23 23
13 11 11 12 14 14 15 16 16 15 14 13 12 12 12 11 10 9 8 7 5 4 3 1 2 4 5 7 9 11 13 14 14 13 12 11 10 9 9 9 8 8 9 11 12 13 14 14 14 15 16 16 17 17 17 16 15 14 14 13 13 13 14 14 14 14 14 15 15
13 14 16 17 17 18 18 17 16 15 14 13 13 12 12 11 10 9 7 6 5 3 2 1 4 6 9 11 12 13 14 14 14 13 12 10 9 8 8 9 9 10 11 12 13 14 14 15 15 15 16 16 16 16 16 16 15 14 13 12 12 12 13 13 13 12 12 12 12
18 19 20 20 20 19 18 17 16 15 15 14 13 12 11 10 9 8 7 5 3 2 3 6 8 10 11 12 13 14 14 14 13 12 11 10 9 8 8 8 7 9 12 13 14 14 15 15 15 16 16 16 16 15 15 14 14 13 12 11 11 11 12 13 13 13 13 12 12
22 22 22 22 21 19 18 17 16 16 15 14 13 12 12 11 9 7 6 4 5 6 8 9 10 11 12 12 12 13 12 12 11 11 10 10 9 8 7 5 5 9 12 13 14 14 15 15 16 16 16 15 15 14 14 13 13 13 12 11 11 11 11 11 12 12 12 13 13
24 24 23 21 20 19 18 17 17 16 15 14 14 13 12 10 8 7 7 7 8 9 10 11 11 11 11 11 11 11 11 11 11 11 11 10 9 8 6 4 5 8 11 13 14 14 15 15 15 16 15 15 14 14 13 13 12 12 11 11 10 10 9 10 11 12 13 13 14
25 23 22 21 20 19 18 18 17 16 15 15 14 13 11 10 9 9 9 10 10 10 10 10 10 9 9 9 10 10 11 11 12 12 12 11 10 9 7 6 7 10 12 13 14 14 15 15 15 15 15 15 14 14 13 13 12 11 11 10 9 8 8 9 10 12 13 13 14
24 23 21 21 20 19 19 18 17 17 16 15 14 12 12 12 12 12 12 11 10 9 8 8 7 7 8 9 10 11 12 13 13 13 13 12 11 10 9 9 10 12 13 13 14 14 15 15 16 16 15 15 14 14 13 12 11 10 10 9 8 7 7 7 9 10 11 11 12
23 22 21 21 20 20 20 19 18 17 16 15 14 15 15 15 14 14 12 11 10 9 8 7 8 8 9 10 11 12 13 14 14 14 13 13 12 11 10 10 11 12 13 14 15 15 16 16 16 16 16 15 15 14 13 12 11 10 9 8 7 7 7 7 8 9 10 10 11
23 22 22 22 21 21 20 20 19 18 17 17 17 17 16 16 15 14 12 10 9 8 8 8 9 10 11 11 12 13 14 14 14 14 13 13 12 11 10 9 10 11 14 15 15 16 16 17 17 17 17 16 15 14 13 12 10 9 8 7 7 7 7 7 8 8 8 9 9
23 23 23 22 22 22 21 20 19 18 18 19 18 18 17 16 15 14 12 10 9 8 8 8 9 10 11 12 12 13 14 14 14 14 14 13 12 11 10 8 8 10 13 15 16 16 16 17 17 17 17 16 15 14 13 12 10 9 8 7 7 7 7 7 7 7 7 6 6
24 24 23 23 23 22 21 21 20 21 21 20 19 18 17 16 15 14 12 9 8 7 7 8 9 10 11 12 12 13 14 15 15 14 14 13 13 12 10 8 7 10 13 15 15 16 16 17 17 17 17 16 15 14 13 12 10 9 8 8 7 7 7 7 6 6 5 5 5
25 24 24 23 23 23 23 23 23 23 22 20 19 18 17 17 16 14 12 9 7 6 7 8 10 11 12 13 13 14 15 15 15 15 15 14 13 12 10 8 7 9 12 14 14 15 15 16 17 17 17 16 15 14 13 12 11 10 9 9 8 7 7 6 5 5 4 5 6
25 25 24 24 24 24 25 25 24 23 21 20 19 18 17 17 16 14 12 9 8 7 8 10 11 13 14 14 14 14 15 16 16 16 15 14 13 12 9 7 7 9 11 13 13 14 14 15 16 16 16 15 15 14 13 12 11 10 10 9 9 8 6 5 5 4 4 5 5
25 25 24 25 25 26 26 25 24 22 21 20 19 18 17 16 15 13 11 9 9 9 10 11 13 14 14 14 15 15 15 16 17 16 15 14 13 11 9 7 7 8 10 12 13 13 13 14 14 15 15 15 14 13 13 12 11 10 10 10 9 8 6 5 4 4 5 5 4
26 26 26 26 26 26 26 25 24 22 21 20 19 18 17 16 14 13 11 10 10 11 11 12 13 14 14 15 15 16 16 16 16 16 15 13 12 10 9 8 7 8 10 12 12 13 13 13 13 14 14 14 13 13 12 12 11 11 10 10 9 8 7 6 6 6 5 5 5
Wind_Direction
175 174 173 171 169 167 166 166 166 168 171 172 172 172 172 170 169 167 168 170 172 173 175 179 188 205 226 242 252 266 283 295 300 300 298 295 290 284 280 279 281 283 285 286 288 289 289 290 290 289 289 289 289 289 287 285 281 277 273 269 264 260 257 254 253 252 251 250 250
177 178 176 174 172 171 169 167 165 166 169 170 171 171 170 169 168 167 168 171 175 178 181 186 195 206 216 225 236 253 274 287 293 296 294 290 283 277 275 277 281 284 286 287 289 290 290 290 290 289 289 288 287 286 284 283 280 276 272 268 266 263 260 258 256 253 251 249 248
179 178 176 174 173 171 168 164 164 165 167 168 169 169 168 168 168 169 172 175 179 182 182 184 185 189 196 211 235 260 278 290 298 301 297 288 280 276 278 282 285 287 288 289 290 290 289 289 289 288 287 286 284 282 279 277 274 270 266 265 266 265 264 262 260 256 252 249 247
177 176 174 173 171 169 167 167 167 168 168 168 168 167 167 168 170 173 175 176 176 175 172 169 168 172 184 219 261 282 294 302 306 305 298 288 281 280 283 286 287 288 288 289 288 288 288 288 287 287 285 283 280 277 274 271 267 262 259 259 260 260 259 259 258 256 253 249 247
175 174 173 172 170 169 170 171 171 170 169 168 167 166 166 167 169 172 172 170 165 160 157 156 156 164 197 266 295 304 305 303 301 298 293 286 283 283 284 286 286 286 286 286 285 285 285 285 285 283 281 279 276 273 270 267 263 259 257 256 254 252 250 251 253 254 253 251 249
172 172 172 171 170 172 173 172 171 170 168 166 165 164 164 164 165 165 162 157 152 149 147 147 151 173 296 310 310 302 292 287 288 288 286 282 282 283 283 284 283 283 283 283 282 282 282 282 281 280 278 276 273 271 270 268 264 262 260 257 254 251 248 246 249 252 253 253 253
171 170 170 170 172 173 172 170 168 166 164 162 161 161 161 160 158 155 151 147 142 139 136 134 124 332 319 304 288 278 276 279 281 281 280 280 281 282 282 283 283 283 283 283 282 281 281 280 279 278 276 274 272 271 270 269 267 265 263 261 258 254 250 246 248 250 251 254 255
170 170 169 170 173 172 168 164 162 160 158 157 157 157 156 153 150 146 142 137 133 129 123 115 222 271 268 264 265 269 274 278 278 277 277 279 280 281 282 283 283 284 284 283 282 281 280 280 279 277 275 274 273 272 271 270 269 267 266 263 260 256 253 249 249 249 251 253 256
168 168 169 170 170 167 162 158 157 155 153 152 152 151 149 146 142 139 137 134 136 139 148 188 225 240 250 258 265 271 274 275 275 275 276 278 279 280 281 282 283 283 283 282 281 280 279 279 278 277 276 275 273 271 270 268 267 267 266 265 262 260 257 254 252 251 252 255 257
166 167 167 166 164 160 155 152 151 151 151 148 146 144 142 141 141 144 149 154 156 166 191 215 233 245 255 263 268 270 270 271 272 273 275 276 277 278 279 280 281 282 282 281 280 280 279 279 279 279 277 276 273 270 268 266 265 265 265 265 265 265 263 261 258 256 255 256 257
164 164 163 160 156 153 149 146 145 146 146 142 140 138 138 140 145 152 157 163 172 191 213 230 244 254 261 264 266 266 266 268 270 272 273 274 275 276 277 280 281 283 283 282 282 282 282 283 283 283 281 278 276 273 270 268 267 266 266 266 267 268 267 266 264 262 259 256 254
161 160 158 154 150 148 145 142 140 139 138 136 135 136 136 137 139 144 151 163 184 211 232 245 253 259 261 262 263 263 265 268 269 271 272 273 274 276 279 282 283 285 285 285 285 286 286 287 286 286 284 282 281 279 277 275 273 272 271 270 270 270 269 268 267 264 261 257 254
158 155 151 148 146 145 143 139 136 135 135 135 136 137 136 132 133 140 156 181 213 236 247 254 257 259 260 261 262 264 267 269 270 271 272 273 276 279 281 284 285 286 287 287 287 288 288 289 288 287 287 286 286 285 283 281 280 279 278 277 276 274 272 271 270 268 264 260 256
154 149 145 143 144 144 142 139 137 136 135 135 136 138 136 133 138 151 180 219 241 250 253 255 256 257 259 261 263 266 267 269 269 271 272 275 278 281 283 285 286 287 287 288 288 288 289 289 289 289 288 288 287 286 285 284 285 285 285 284 282 280 279 279 279 279 276 271 266
148 143 141 142 143 144 142 139 137 135 133 131 134 136 135 135 143 177 227 246 250 251 252 253 255 257 259 261 264 265 267 268 269 271 274 277 280 283 285 286 287 288 288 289 289 290 291 291 291 290 290 289 287 286 287 289 292 294 295 293 291 290 290 292 295 295 291 288 284
141 138 138 141 142 141 138 134 134 134 132 132 133 133 133 137 180 235 246 248 248 248 250 252 254 257 259 262 262 263 264 266 269 273 277 281 284 286 287 288 289 290 291 293 294 295 296 296 296 294 292 291 290 291 294 297 299 299 298 298 298 298 298 298 296 291 288 287 287
134 133 134 136 136 135 132 131 133 134 134 134 132 130 135 185 235 242 242 242 243 245 248 251 253 256 258 260 260 261 263 267 272 276 280 284 286 288 290 292 294 295 297 298 299 300 300 300 300 298 295 292 290 291 290 288 284 281 281 284 287 288 287 284 280 276 274 274 275
129 128 129 131 131 131 131 132 133 134 133 131 128 130 175 220 228 231 233 237 240 243 246 250 253 254 256 257 258 261 265 269 275 279 283 286 289 293 296 299 300 301 302 302 302 302 301 301 302 302 297 289 283 278 273 269 268 267 267 270 272 272 270 267 265 265 266 267 268
126 125 127 129 130 130 131 132 132 131 128 124 124 150 189 207 217 224 230 234 237 240 244 248 250 252 253 255 258 262 268 272 278 283 288 293 297 300 303 304 304 304 304 304 303 303 303 305 308 308 303 294 284 276 269 264 263 265 265 267 269 269 268 266 264 265 266 269 271
128 129 128 128 129 131 130 130 128 125 120 120 135 162 186 203 216 224 228 231 234 238 241 245 247 249 251 255 260 267 274 281 288 294 299 303 305 306 306 306 306 306 306 306 306 305 306 307 306 301 293 285 279 273 266 259 255 253 254 256 259 264 268 269 268 269 271 272 274
125 126 126 126 127 128 127 124 122 118 118 128 149 174 196 210 217 221 224 227 231 234 237 240 242 245 250 257 267 278 288 297 303 306 308 308 308 308 307 306 307 308 309 310 309 306 300 289 277 271 268 267 266 266 266 264 259 254 251 249 248 249 253 256 257 257 258 260 262
122 121 122 122 122 121 120 117 116 118 126 144 171 193 206 211 214 216 219 222 226 228 230 232 236 241 252 267 283 296 305 310 311 311 311 310 310 309 309 310 312 314 316 316 313 307 298 286 278 274 273 273 273 274 275 274 271 265 260 255 249 245 243 243 243 243 243 245 249
120 119 119 117 115 113 113 114 119 128 147 173 193 202 205 206 208 210 213 216 218 219 221 223 230 245 269 292 306 312 314 315 314 314 314 314 314 314 315 318 321 325 327 325 321 318 315 312 307 302 299 296 294 293 291 289 285 280 274 268 261 254 249 246 245 244 244 245 246
118 117 114 111 108 109 114 123 136 156 178 192 197 198 197 198 202 204 206 207 207 207 209 215 233 271 303 315 318 319 319 320 321 321 322 322 323 325 327 331 339 345 342 331 325 324 325 324 322 319 316 313 311 309 307 304 301 296 290 283 276 268 261 256 253 250 249 249 249
116 113 111 109 113 122 134 150 168 183 191 193 191 189 189 192 194 196 196 195 193 193 195 209 263 310 320 324 325 327 330 331 333 334 334 334 335 338 344 352 2 358 338 322 321 324 326 326 325 323 321 320 318 318 316 313 310 307 302 296 289 282 275 270 265 262 260 259 259
117 117 121 130 142 153 164 177 186 189 188 183 180 180 181 184 186 186 185 183 182 182 185 205 292 318 328 335 341 344 345 346 347 348 348 348 350 354 0 7 11 353 322 316 321 325 327 327 326 325 324 323 322 321 320 319 317 314 311 307 302 297 291 286 281 277 274 272 272
130 141 152 160 166 173 182 187 186 182 176 172 172 173 175 177 178 177 176 176 177 182 193 230 317 341 351 357 360 359 359 359 359 358 358 359 0 4 9 12 4 343 326 326 328 329 329 329 328 327 326 325 324 323 323 322 321 319 316 314 312 309 306 303 300 296 292 289 286
157 165 169 172 178 183 185 182 176 169 165 165 167 168 170 171 171 171 172 174 179 185 190 11 13 14 16 16 13 10 7 7 6 5 5 5 5 9 16 20 3 342 331 331 330 329 329 328 328 327 327 325 325 324 324 323 322 320 317 314 311 309 308 307 307 308 306 302 295
171 174 176 180 183 181 176 169 163 160 160 162 164 165 166 166 166 167 170 170 165 117 58 41 34 30 28 25 20 16 13 10 9 9 9 7 6 12 24 30 0 335 326 326 326 326 326 327 327 327 327 326 326 326 325 324 323 320 317 312 306 301 298 299 303 306 306 304 299
175 178 180 180 176 170 163 158 157 158 160 162 163 164 163 163 162 159 151 131 96 73 58 48 41 37 33 27 23 19 15 11 12 13 13 10 9 12 23 31 348 324 320 321 321 322 324 326 326 326 327 328 328 328 328 327 326 324 321 317 309 302 300 303 308 312 315 316 316
177 178 176 171 164 158 155 155 156 158 160 162 163 163 162 158 147 132 114 96 82 71 61 52 47 42 36 28 24 20 18 17 19 19 18 14 12 10 11 7 330 318 317 318 319 321 324 326 326 327 329 331 332 332 332 331 330 330 328 324 319 315 315 317 318 319 320 321 322
173 170 165 159 155 153 153 155 156 158 160 161 162 160 153 139 123 109 98 88 80 72 65 58 53 46 37 28 25 24 25 26 27 25 22 18 14 8 357 337 324 319 318 319 321 323 326 327 327 329 331 334 335 335 334 334 334 334 331 327 323 321 319 317 314 312 311 312 313
164 159 156 154 153 153 154 155 156 157 157 157 152 142 129 117 110 103 96 89 84 79 74 66 56 46 37 31 30 31 33 33 31 27 22 18 14 7 355 339 332 327 324 323 324 326 327 328 328 330 332 334 335 335 334 334 333 332 328 324 321 317 311 305 300 297 296 295 296
155 153 153 153 154 154 154 154 154 153 150 142 131 120 113 110 108 105 101 97 93 87 77 64 55 47 42 38 37 37 37 36 32 27 21 17 12 7 359 349 341 333 327 325 326 328 329 328 329 330 331 333 333 333 332 332 331 330 327 325 323 319 312 302 294 288 285 283 282
152 152 153 154 154 154 154 152 151 146 137 125 115 111 109 108 107 106 105 100 94 84 71 59 51 46 44 42 41 40 38 36 32 28 23 18 13 9 5 359 345 332 326 325 328 329 329 328 327 327 328 329 330 330 330 331 332 334 335 334 331 326 318 309 302 297 294 293 292
152 153 154 154 154 153 152 149 143 133 122 113 110 110 110 109 107 104 102 97 90 81 69 58 51 46 44 45 44 42 39 36 33 30 26 22 17 13 10 2 342 327 323 326 329 329 328 326 325 324 325 326 327 328 329 331 335 338 340 337 333 327 322 317 315 315 317 320 326
151 152 152 153 152 150 146 139 128 118 112 111 112 112 112 110 108 105 103 100 95 85 72 61 54 49 48 48 47 43 39 37 35 32 29 26 22 17 12 0 335 322 323 327 328 328 326 324 322 322 323 324 326 328 329 331 335 338 338 335 333 333 334 334 337 340 347 358 7
149 150 150 150 148 143 134 124 116 112 112 113 114 114 113 112 111 110 109 107 103 90 73 63 57 53 52 50 47 44 40 39 37 34 30 28 24 19 12 360 336 325 326 329 329 327 324 322 322 322 323 325 326 328 329 331 334 336 336 337 341 348 351 354 357 4 16 25 21
147 147 147 145 139 131 123 116 114 114 116 116 115 114 113 112 112 112 111 107 98 85 72 63 58 56 53 51 49 45 41 39 38 35 32 28 24 19 14 4 345 334 333 334 332 329 327 325 325 326 327 328 329 329 329 331 333 335 338 343 352 360 5 8 13 20 25 22 13
144 143 140 135 129 123 119 117 118 118 118 117 115 113 112 111 110 109 107 101 91 80 71 65 60 57 55 53 51 48 44 40 38 37 33 30 26 23 19 13 1 351 346 344 341 337 335 333 332 332 333 333 333 332 331 332 334 337 343 351 359 7 13 17 18 20 14 2 346
139 136 131 127 123 120 119 119 120 119 117 115 113 112 111 109 108 107 105 99 90 81 73 68 63 60 58 57 55 53 49 44 40 39 37 34 32 30 28 24 18 9 1 355 351 348 346 344 342 342 342 341 340 337 335 335 338 344 351 360 4 9 14 18 16 7 355 336 323